Weather History for KFOA - March, 2014

Change the Weather History Date:

Monday, March 31, 2014

  Actual Average (KEVV) Record (KEVV)
Temperature  
Mean Temperature 52 °F 51 °F  
Max Temperature 70 °F 62 °F 84 °F (1981)
Min Temperature 35 °F 40 °F 19 °F (1923)
Degree Days  
Heating Degree Days 12 14  
Month to date heating degree days 590  
Since 1 July heating degree days 4166  
Cooling Degree Days 0 0  
Month to date cooling degree days 3  
Year to date cooling degree days 3  
Growing Degree Days 2 (Base 50)    
Moisture  
Dew Point 35 °F    
Average Humidity 53    
Maximum Humidity 87    
Minimum Humidity 27    
Precipitation  
Precipitation 0.00 in 0.15 in 2.02 in (1979)
Month to date precipitation 4.24  
Year to date precipitation 10.51  
Snow  
Snow 0.00 in 0.00 in 0.00 in (2002)
Month to date snowfall 1.0  
Since 1 July snowfall 11.7  
Snow Depth -    
Sea Level Pressure  
Sea Level Pressure 30.01 in    
Wind  
Wind Speed 10 mph (SSE)    
Max Wind Speed 24 mph    
Max Gust Speed 30 mph    
Visibility 10 miles    
Events      
T = Trace of Precipitation, MM = Missing Value Source: NWS Daily Summary

Daily Weather History Graph

Daily Weather History Graph

Search for Another Location

Airport or City:

Trip Planner

Search our weather history database for the weather conditions in past years. The results will help you decide how hot, cold, wet, or windy it might be!

Date:

Astronomy

Mar. 31, 2014 Rise Set
Actual Time 6:40 AM CDT 7:16 PM CDT
Civil Twilight 6:13 AM CDT 7:43 PM CDT
Nautical Twilight 5:41 AM CDT 8:14 PM CDT
Astronomical Twilight 5:09 AM CDT 8:47 PM CDT
Moon 7:04 AM CDT (3/31) 8:33 PM CDT (3/31)
Length of Visible Light 13h 29m
Length of Day
12h 36m
New Moon, 1% of the Moon is Illuminated
Mar 31
New Moon
Apr 7
First Quarter
Apr 15
Full
Apr 22
Last Quarter
Apr 29
New

Hourly Weather History & Observations

Time (CDT) Temp. Windchill Dew Point Humidity Pressure Visibility Wind Dir Wind Speed Gust Speed Precip Events Conditions
12:15 AM 39.9 °F 35.8 °F 32.4 °F 74% 30.13 in 10.0 mi South 5.8 mph - N/A   Clear
12:35 AM 40.5 °F 35.8 °F 32.2 °F 72% 30.13 in 10.0 mi SSE 6.9 mph - N/A   Clear
12:55 AM 40.1 °F 36.9 °F 32.2 °F 73% 30.13 in 10.0 mi South 4.6 mph - N/A   Clear
1:15 AM 39.2 °F 35.0 °F 32.0 °F 75% 30.13 in 10.0 mi SSE 5.8 mph - N/A   Clear
1:35 AM 38.1 °F 33.7 °F 32.2 °F 79% 30.13 in 10.0 mi SSE 5.8 mph - N/A   Clear
1:55 AM 36.3 °F 30.8 °F 32.0 °F 84% 30.12 in 10.0 mi SSE 6.9 mph - N/A   Clear
2:15 AM 36.7 °F 30.5 °F 31.8 °F 83% 30.12 in 10.0 mi SE 8.1 mph - N/A   Clear
2:35 AM 37.9 °F 32.7 °F 32.0 °F 79% 30.12 in 10.0 mi SE 6.9 mph - N/A   Clear
2:50 AM 37.2 °F 31.9 °F 32.0 °F 81% 30.12 in 10.0 mi SE 6.9 mph - N/A   Clear
3:15 AM 37.4 °F 32.1 °F 32.0 °F 81% 30.11 in 10.0 mi SE 6.9 mph - N/A   Clear
3:35 AM 37.4 °F 31.4 °F 32.0 °F 81% 30.10 in 10.0 mi SE 8.1 mph - N/A   Clear
3:56 AM 37.4 °F 32.1 °F 32.0 °F 81% 30.10 in 10.0 mi SSE 6.9 mph - N/A   Clear
4:36 AM 35.6 °F 30.7 °F 32.0 °F 87% 30.10 in 10.0 mi SSE 5.8 mph - N/A   Clear
4:55 AM 37.4 °F 32.8 °F 32.0 °F 81% 30.10 in 10.0 mi SSE 5.8 mph - N/A   Clear
5:15 AM 35.6 °F 31.7 °F 32.0 °F 87% 30.10 in 10.0 mi SSE 4.6 mph - N/A   Clear
5:20 AM 35.4 °F 31.5 °F 32.0 °F 87% 30.10 in 10.0 mi SSE 4.6 mph - N/A   Clear
5:35 AM 35.1 °F 29.3 °F 31.3 °F 86% 30.10 in 10.0 mi SE 6.9 mph - N/A   Clear
5:55 AM 35.4 °F 29.7 °F 31.8 °F 87% 30.10 in 10.0 mi SSE 6.9 mph - N/A   Clear
6:15 AM 35.6 °F 29.2 °F 31.6 °F 85% 30.09 in 10.0 mi SE 8.1 mph - N/A   Clear
6:35 AM 36.9 °F 30.7 °F 32.0 °F 83% 30.09 in 10.0 mi SE 8.1 mph - N/A   Clear
6:55 AM 37.0 °F 31.6 °F 32.0 °F 82% 30.10 in 10.0 mi SE 6.9 mph - N/A   Clear
7:15 AM 37.0 °F 33.3 °F 32.4 °F 83% 30.10 in 10.0 mi SSE 4.6 mph - N/A   Clear
7:35 AM 38.8 °F 36.5 °F 34.2 °F 83% 30.11 in 10.0 mi SSE 3.5 mph - N/A   Clear
7:55 AM 42.8 °F 39.3 °F 36.1 °F 77% 30.10 in 10.0 mi SSE 5.8 mph - N/A   Clear
8:15 AM 45.5 °F 39.9 °F 36.0 °F 69% 30.10 in 10.0 mi SSE 11.5 mph - N/A   Clear
8:35 AM 47.5 °F - 36.3 °F 65% 30.09 in 10.0 mi SSE 10.4 mph - N/A   Clear
8:55 AM 48.9 °F - 35.8 °F 61% 30.10 in 10.0 mi SSE 13.8 mph - N/A   Clear
9:15 AM 51.1 °F - 36.3 °F 57% 30.09 in 10.0 mi SSE 11.5 mph - N/A   Clear
9:35 AM 52.9 °F - 35.2 °F 51% 30.09 in 10.0 mi SSE 17.3 mph - N/A   Clear
9:55 AM 55.6 °F - 35.4 °F 47% 30.08 in 10.0 mi SSE 13.8 mph - N/A   Clear
10:10 AM 57.6 °F - 35.1 °F 43% 30.07 in 10.0 mi South 16.1 mph - N/A   Clear
10:35 AM 59.9 °F - 34.7 °F 39% 30.08 in 10.0 mi South 18.4 mph 23.0 mph N/A   Clear
10:55 AM 60.8 °F - 35.4 °F 39% 30.07 in 10.0 mi South 19.6 mph 25.3 mph N/A   Clear
11:15 AM 61.7 °F - 35.1 °F 37% 30.07 in 10.0 mi South 19.6 mph 27.6 mph N/A   Clear
11:35 AM 62.1 °F - 35.6 °F 37% 30.06 in 10.0 mi South 17.3 mph 24.2 mph N/A   Clear
11:55 AM 63.1 °F - 36.1 °F 37% 30.07 in 10.0 mi South 16.1 mph 23.0 mph N/A   Clear
12:15 PM 64.4 °F - 36.0 °F 35% 30.05 in 10.0 mi SSE 16.1 mph 21.9 mph N/A   Clear
12:35 PM 65.3 °F - 36.0 °F 34% 30.05 in 10.0 mi SSE 18.4 mph 23.0 mph N/A   Clear
12:55 PM 65.5 °F - 36.1 °F 34% 30.04 in 10.0 mi SSE 20.7 mph 26.5 mph N/A   Clear
1:37 PM - - - N/A% 30.02 in - South 18.4 mph - N/A   Unknown
1:40 PM 68.7 °F - 35.1 °F 29% 30.01 in - SSE 24.2 mph - N/A   Unknown
1:55 PM 68.4 °F - 34.7 °F 29% 30.00 in 10.0 mi SSE 21.9 mph 27.6 mph N/A   Unknown
2:15 PM 69.3 °F - 35.2 °F 29% 29.99 in 10.0 mi SSE 19.6 mph 25.3 mph N/A   Clear
2:35 PM 69.6 °F - 34.9 °F 28% 29.97 in 10.0 mi SSE 19.6 mph 28.8 mph N/A   Clear
2:55 PM 70.2 °F - 35.8 °F 28% 29.97 in 10.0 mi SSE 18.4 mph - N/A   Clear
3:15 PM 69.6 °F - 35.8 °F 29% 29.95 in 10.0 mi SSE 18.4 mph 26.5 mph N/A   Clear
3:35 PM 69.6 °F - 33.6 °F 27% 29.94 in 10.0 mi South 20.7 mph 27.6 mph N/A   Clear
3:55 PM 69.1 °F - 35.2 °F 29% 29.94 in 10.0 mi SSE 16.1 mph 23.0 mph N/A   Clear
4:15 PM 68.4 °F - 36.1 °F 31% 29.92 in 10.0 mi SSE 13.8 mph 25.3 mph N/A   Clear
4:35 PM 67.6 °F - 35.6 °F 31% 29.92 in 10.0 mi SSE 17.3 mph - N/A   Clear
4:55 PM 67.1 °F - 36.9 °F 33% 29.92 in 10.0 mi SSE 11.5 mph - N/A   Clear
5:15 PM 67.1 °F - 37.9 °F 34% 29.90 in 10.0 mi SSE 15.0 mph - N/A   Clear
5:35 PM 67.1 °F - 37.6 °F 34% 29.90 in 10.0 mi SSE 15.0 mph - N/A   Clear
5:55 PM 67.1 °F - 35.4 °F 31% 29.90 in 10.0 mi South 16.1 mph 21.9 mph N/A   Clear
6:15 PM 66.0 °F - 36.3 °F 33% 29.90 in 10.0 mi South 12.7 mph - N/A   Clear
6:35 PM 65.3 °F - 37.0 °F 35% 29.92 in 10.0 mi South 13.8 mph - N/A   Clear
6:55 PM 64.2 °F - 37.6 °F 37% 29.90 in 10.0 mi SSE 11.5 mph - N/A   Clear
7:15 PM 62.8 °F - 37.0 °F 38% 29.87 in 10.0 mi SSE 13.8 mph - N/A   Clear
7:35 PM 62.1 °F - 37.6 °F 40% 29.87 in 10.0 mi SSE 12.7 mph - N/A   Clear
7:55 PM 62.6 °F - 36.5 °F 38% 29.84 in 10.0 mi SSE 16.1 mph - N/A   Clear
8:15 PM 64.8 °F - 33.6 °F 31% 29.82 in 10.0 mi SSE 18.4 mph 28.8 mph N/A   Clear
8:35 PM 63.7 °F - 34.9 °F 34% 29.85 in 10.0 mi SSW 16.1 mph 29.9 mph N/A   Clear
8:55 PM 62.6 °F - 35.8 °F 37% 29.86 in 10.0 mi SSW 15.0 mph - N/A   Clear
9:15 PM 61.9 °F - 37.4 °F 40% 29.89 in 10.0 mi SW 12.7 mph 20.7 mph N/A   Scattered Clouds
9:35 PM 62.2 °F - 37.0 °F 39% 29.91 in 10.0 mi SW 12.7 mph - N/A   Scattered Clouds
9:55 PM 61.5 °F - 38.7 °F 43% 29.91 in 10.0 mi SSW 10.4 mph - N/A   Clear
10:15 PM 61.0 °F - 38.8 °F 44% 29.91 in 10.0 mi South 10.4 mph - N/A   Clear
10:35 PM 59.9 °F - 39.6 °F 47% 29.91 in 10.0 mi South 10.4 mph - N/A   Scattered Clouds
10:50 PM 59.4 °F - 40.1 °F 49% 29.90 in 10.0 mi South 9.2 mph - N/A   Clear
11:15 PM 60.8 °F - 39.2 °F 45% 29.89 in 10.0 mi South 10.4 mph - N/A   Clear
11:35 PM 60.8 °F - 39.9 °F 46% 29.89 in 10.0 mi SSW 10.4 mph - N/A   Clear
11:55 PM 60.8 °F - 40.1 °F 46% 29.90 in 10.0 mi SSW 10.4 mph - N/A   Clear